Wind_Speed
4 3 6 8 10 11 13 13 12 15 17 18 18 18 20 20 20 20 19 21 23 25 27 28 28 29 29
6 3 4 7 9 10 13 11 10 14 15 16 16 18 19 19 19 17 18 21 23 25 28 28 29 29 29
7 5 3 5 7 9 11 11 8 14 15 16 15 17 17 15 18 17 18 21 24 25 28 28 29 29 29
7 5 4 3 5 7 8 10 5 15 16 15 14 17 17 11 14 18 19 20 22 25 26 27 28 30 30
7 4 3 2 3 6 6 8 5 15 17 15 16 18 19 14 14 16 20 21 23 24 25 25 28 30 30
7 6 4 3 3 4 5 6 5 8 13 9 14 14 17 14 9 16 20 22 23 25 25 24 28 30 30
10 8 7 4 2 3 4 4 4 9 11 5 11 13 16 13 8 16 19 22 22 24 22 25 27 28 29
8 7 6 4 1 2 4 5 7 6 7 3 10 14 15 10 4 21 20 21 22 22 21 26 26 27 28
6 5 3 3 3 2 1 3 4 3 4 10 11 16 10 8 7 25 21 20 21 20 19 25 25 26 28
10 8 6 5 4 3 2 1 2 2 2 9 9 13 8 4 17 17 20 22 20 17 23 22 24 22 24
10 8 6 4 3 3 2 1 1 2 5 8 6 7 6 13 13 13 20 21 19 18 24 23 22 23 22
11 8 7 6 5 4 3 2 3 5 6 6 6 6 7 11 10 18 19 17 13 20 20 23 23 23 21
12 10 8 6 5 4 3 3 3 4 4 5 7 9 9 8 12 17 18 17 11 18 19 21 21 21 23
12 10 8 6 5 5 4 3 2 1 3 5 7 10 11 11 12 14 12 10 18 17 20 18 19 18 20
13 12 9 8 7 5 3 2 1 3 6 6 7 10 11 12 9 10 12 15 15 21 19 19 18 18 20
15 13 11 10 8 6 5 4 3 3 5 9 10 11 11 8 5 11 12 14 20 18 17 17 19 20 21
15 15 13 12 9 7 6 5 5 5 7 8 8 7 9 6 8 2 15 20 17 17 17 18 19 22 22
Wind_Direction
136 52 40 46 45 43 39 44 48 29 23 20 19 16 14 17 19 21 25 20 14 7 1 358 355 354 354
141 105 61 46 46 44 41 38 42 29 25 23 21 18 19 25 23 30 23 16 10 4 360 356 354 354 353
142 128 99 47 41 39 40 43 52 30 28 28 26 22 23 36 31 24 15 8 6 1 357 355 353 352 351
128 127 117 61 46 25 17 22 43 22 29 23 27 22 25 29 29 19 13 5 0 358 357 355 353 350 349
142 140 133 93 51 27 16 11 28 14 14 15 20 16 15 25 28 15 11 9 5 1 358 356 353 351 348
154 150 147 129 57 25 16 19 19 358 355 359 13 6 8 13 19 12 7 5 4 360 357 354 353 350 349
163 158 154 145 93 37 3 356 347 345 348 339 359 355 1 359 10 5 1 359 359 357 357 353 352 350 351
164 156 149 150 129 297 317 334 340 2 17 327 342 340 338 349 7 358 354 356 357 355 354 352 351 349 353
173 167 162 185 234 253 290 338 344 354 33 353 342 332 325 340 349 348 357 357 352 353 352 351 351 349 355
186 190 203 204 230 253 267 170 8 346 350 341 339 350 330 322 332 350 354 359 355 0 355 357 354 353 353
191 196 201 203 207 211 216 273 283 280 323 336 316 344 322 316 328 341 345 349 351 353 351 358 359 357 352
194 198 209 205 192 214 254 274 308 317 328 325 315 339 331 321 330 332 341 344 350 348 347 352 354 355 355
197 205 207 208 216 213 206 251 292 316 334 339 337 333 329 303 309 323 334 336 347 345 346 345 347 351 346
207 203 205 207 199 205 212 248 296 310 332 336 335 333 327 319 311 314 331 328 331 339 338 337 341 347 347
201 198 203 204 202 206 216 226 225 311 325 332 328 325 327 324 311 319 327 326 331 332 336 333 334 339 342
207 208 210 208 207 210 218 220 256 278 305 323 329 336 339 333 325 315 324 326 327 328 330 328 327 333 337
214 213 214 212 207 211 213 227 244 268 304 314 322 330 327 319 301 335 327 324 326 329 328 326 321 322 330
Height
914 915 914 913 912 910 909 907 906 904 902 899 897 894 891 888 884 882 880 877 874 870 866 861 855 850 846
911 913 914 912 911 910 908 907 905 904 902 900 897 894 892 890 886 884 881 878 875 871 866 861 855 850 845
907 909 911 911 910 909 908 906 905 904 902 900 897 894 892 890 888 885 882 879 876 872 867 861 855 850 844
907 907 908 909 908 908 908 906 904 903 902 900 897 894 892 890 888 885 883 880 876 872 867 861 856 850 844
905 907 907 908 908 907 906 905 903 902 901 899 896 894 891 890 889 886 883 879 876 872 867 862 857 851 844
903 904 906 906 907 907 906 905 904 903 901 899 897 895 892 889 888 886 883 879 876 871 867 862 857 851 844
900 901 903 904 904 905 905 904 903 902 900 898 897 895 892 889 887 886 882 879 876 872 867 862 856 850 844
897 899 900 902 903 904 903 902 901 900 899 899 897 894 891 888 885 884 881 878 875 871 867 862 856 850 844
896 897 898 900 900 901 901 901 901 901 899 899 896 892 889 886 884 882 879 876 873 870 866 860 855 849 843
893 895 896 898 898 899 899 899 900 899 899 898 896 893 888 885 884 881 878 875 872 869 865 860 855 850 844
891 893 894 895 896 897 897 897 897 898 897 896 895 893 892 887 883 881 879 874 870 867 864 860 855 851 846
888 890 892 893 893 895 895 896 895 895 895 894 893 892 891 887 884 881 878 874 871 868 863 859 855 852 848
885 887 889 891 891 893 893 894 894 893 892 892 891 890 889 887 885 881 877 874 871 868 864 860 856 851 846
882 884 887 888 888 890 891 891 891 891 891 890 889 887 886 885 883 880 878 876 871 868 864 860 856 852 847
878 881 883 884 885 886 887 888 888 888 888 887 887 885 884 882 881 879 876 874 871 867 863 859 855 851 847
875 876 878 880 882 883 884 885 886 886 885 884 883 882 881 881 879 877 876 873 870 866 863 859 854 850 846
870 872 874 876 879 880 881 883 883 883 883 882 881 881 880 879 878 876 875 871 868 865 862 858 854 849 845